sat.trackr.live / text

‹ back to catalog

STARLINK-11688 [DTC]

NORAD 63756 · 2025-089F

PAYLOAD ACTIVE UNKNOWN

§ Identity

Operator
Country
US
Launch date
2025-04-29
Launch site
AFETR
Launch vehicle
Mass (kg)
RCS (m²)

Purposes: comms

External: N2YO · Heavens-Above · Gunter

§ Orbital elements

Epoch: 2026-09-20T05:50:48.921792Z

Period
91.67 min
Inclination
43.0005°
Eccentricity
0.0001578
Mean motion
15.70858376 rev/d
Perigee alt
355.4 km
Apogee alt
357.5 km
Semi-major
6,734.6 km
B*
1.0082e-3
RAAN
199.5512°
Arg perigee
272.9434°
Mean anomaly
87.1253°
Rev number
8,062

§ Raw data

STARLINK-11688 [DTC]1 63756U 25089F   26263.24362178  .00131083  00000+0  10082-2 0  99912 63756  43.0005 199.5512 0001578 272.9434  87.1253 15.70858376 80627

JSON: /api/v1/satellites/63756 · /tle

For live sub-satellite position, see the globe view (requires WebGL).

§ Visibility from observer

Set your observer location to see the next 7 days of passes ≥ 10°. The values pass through the URL so the page stays shareable.

No JS? Fill the form by hand. The geolocation button needs JavaScript.